This is the latest recevied weather packets stored in our database for station/object KC9DRE. If no packets are shown the sender has not sent any weather packets the latest 10 day(s).
| Time | Temp. | Humidity | Pressure | Rain* | Wind** | Luminosity | Snow |
|---|---|---|---|---|---|---|---|
| 1777581821 | 17.22° C | 39% | 1016.3 hPa | 0 mm | - | 282 W/m² | - |
| 1777581520 | 17.78° C | 39% | 1016.4 hPa | 0 mm | - | 656 W/m² | - |
| 1777580306 | 16.67° C | 37% | 1016.7 hPa | 0 mm | - | 669 W/m² | - |
| 1777579397 | 17.22° C | 42% | 1016.7 hPa | 0 mm | - | 744 W/m² | - |
| 1777577878 | 16.11° C | 42% | 1017 hPa | 0 mm | - | 753 W/m² | - |
| 1777577574 | 16.11° C | 41% | 1017 hPa | 0 mm | - | 787 W/m² | - |
| 1777576967 | 16.11° C | 41% | 1017.2 hPa | 0 mm | - | 789 W/m² | - |
| 1777575756 | 17.22° C | 40% | 1017.3 hPa | 0 mm | - | 810 W/m² | - |
| 1777574844 | 16.11° C | 43% | 1017.4 hPa | 0 mm | - | 819 W/m² | - |
| 1777573020 | 15° C | 48% | 1017.4 hPa | 0 mm | - | 864 W/m² | - |
| 1777572716 | 15° C | 46% | 1017.5 hPa | 0 mm | - | 207 W/m² | - |
| 1777572411 | 15.56° C | 44% | 1017.5 hPa | 0 mm | - | 875 W/m² | - |
| 1777570594 | 15° C | 45% | 1018 hPa | 0 mm | - | 876 W/m² | - |
| 1777569378 | 14.44° C | 46% | 1018.1 hPa | 0 mm | - | 869 W/m² | - |
| 1777569074 | 14.44° C | 42% | 1018.2 hPa | 0 mm | - | 870 W/m² | - |
| 1777567558 | 14.44° C | 44% | 1018.1 hPa | 0 mm | - | 859 W/m² | - |
| 1777566652 | 15° C | 45% | 1018.2 hPa | 0 mm | - | 841 W/m² | - |
| 1777566349 | 15° C | 45% | 1018.2 hPa | 0 mm | - | 838 W/m² | - |
| 1777566046 | 14.44° C | 43% | 1017.9 hPa | 0 mm | - | 833 W/m² | - |
| 1777565742 | 13.89° C | 40% | 1018 hPa | 0 mm | - | 827 W/m² | - |
| 1777565438 | 13.89° C | 44% | 1017.9 hPa | 0 mm | - | 821 W/m² | - |
| 1777563314 | 14.44° C | 48% | 1018.2 hPa | 0 mm | - | 759 W/m² | - |
| 1777563011 | 13.89° C | 51% | 1018.2 hPa | 0 mm | - | 747 W/m² | - |
| 1777562406 | 13.89° C | 52% | 1018.2 hPa | 0 mm | - | 721 W/m² | - |
| 1777559673 | 12.78° C | 52% | 1018.4 hPa | 0 mm | - | 592 W/m² | - |
* Rain latest hour (hover to see other rain measurements)
** Current wind speed in m/s (hover to see current wind gust speed)